Regional Weather Roundup
Issued by NWS

Home | Current Version | Previous Version | Text Only | Print | Product List | Glossary Off
Versions: 1 2 3 4 5 6 7 8 9 10 11 12 13 14 15 16 17 18 19 20 21 22 23 24 25 26 27 28 29 30 31 32 33 34 35 36 37 38 39 40 41 42 43 44 45 46 47 48 49 50

000
ASUS43 KFSD 231702
RWRSD

WEATHER ROUNDUP FOR SOUTH DAKOTA
NATIONAL WEATHER SERVICE SIOUX FALLS SD
1200 PM CDT WED JUL 23 2014

NOTE: "FAIR" INDICATES FEW OR NO CLOUDS BELOW 12,000 FEET WITH NO
SIGNIFICANT WEATHER AND/OR OBSTRUCTIONS TO VISIBILITY.


SDZ001>005-009-010-012>017-231800-
NORTHWEST AND NORTH CENTRAL SOUTH DAKOTA

CITY           SKY/WX    TMP DP  RH WIND       PRES   REMARKS
BUFFALO          N/A     81  64  56 E7        30.15F
FAITH            N/A     78  62  57 SE18G28   30.23F
MOBRIDGE       SUNNY     77  61  57 S16G22    30.24F
$$

SDZ012>016-024>037-041>051-057-063-072>074-231800-
SOUTHWEST AND SOUTH CENTRAL SOUTH DAKOTA

CITY           SKY/WX    TMP DP  RH WIND       PRES   REMARKS
RAPID CTY ARPT SUNNY     78  63  59 SE18      30.24R
PIERRE         SUNNY     79  58  48 SE22      30.24F
CUSTER         SUNNY     74  53  48 SW10G18   30.37F
ELLSWORTH AFB  SUNNY     80  62  53 SE22      30.23S
PHILIP         SUNNY     82  62  50 SE8       30.21F
PINE RIDGE     SUNNY     81  62  52 CALM      30.25S
WINNER         FAIR      79  56  45 SE18G24   30.26F
$$

SDZ004>011-016>023-039-040-231800-
NORTHEAST SOUTH DAKOTA

CITY           SKY/WX    TMP DP  RH WIND       PRES   REMARKS
ABERDEEN       SUNNY     75  55  49 SE9       30.28F
WATERTOWN      SUNNY     75  53  46 MISG      30.30S
SISSETON         N/A     74  56  53 VRB5      30.28F
$$

SDZ017-020-022-023-036>040-048>070-231800-
SOUTHEAST SOUTH DAKOTA

CITY           SKY/WX    TMP DP  RH WIND       PRES   REMARKS
SIOUX FALLS    MOSUNNY   77  54  44 VRB3      30.28F
HURON          SUNNY     76  56  49 SE8       30.27F
CHAMBERLAIN    MOSUNNY   76  53  45 SE13G18   30.27F
MITCHELL       PTSUNNY   79  56  45 SE9       30.28F
YANKTON        MOSUNNY   73  57  56 E7        30.27F
$$

ABBREVIATIONS USED IN REMARKS
   TC - TEMPERATURE IN CELSIUS
  WCI - WIND CHILL INDEX
   HX - HEAT INDEX
  VSB - VISIBILITY



USA.gov is the U.S. government's official web portal to all federal, state and local government web resources and services.